+ View the NASA Portal
+ Center for Near-Earth Object Studies
IMPORTANT:
The SSD Announcement email list is now available. Major changes are coming in the near future, including possible hostname and/or URL changes. To be notified of such changes, subscribe to this email list.
Please visit
this page
for more details.
Don't show this message again
JPL Small-Body Database Browser
Search:
[
help
]
357384 (2003 UP43)
Classification:
Main-belt Asteroid
SPK-ID:
2357384
[
Ephemeris
|
Orbit Diagram
|
Orbital Elements
|
Mission Design
|
Physical Parameters
|
Discovery Circumstances
|
Close-Approach Data
]
[ show orbit diagram ]
Orbital Elements at Epoch 2458600.5 (2019-Apr-27.0) TDB
Reference:
JPL 11
(heliocentric ecliptic J2000)
Element
Value
Uncertainty (1-sigma)
Units
e
.1869735752306523
5.1241e-08
a
2.363336749124451
1.7781e-08
au
q
1.921455227666665
1.2372e-07
au
i
1.785205073212928
6.2464e-06
deg
node
146.37051328526
0.00020809
deg
peri
160.4299059219015
0.00020887
deg
M
151.4381470014524
2.0531e-05
deg
t
p
2458042.261705463758
(2017-Oct-15.76170546)
7.2682e-05
TDB
period
1327.048633466967
3.63
1.4977e-05
4.1e-08
d
yr
n
.2712786788073363
3.0616e-09
deg/d
Q
2.805218270582237
2.1106e-08
au
Orbit Determination Parameters
# obs. used (total)
115
data-arc span
5535 days (15.15 yr)
first obs. used
2003-10-15
last obs. used
2018-12-10
planetary ephem.
DE431
SB-pert. ephem.
SB431-N16
condition code
0
norm. resid. RMS
.58434
source
ORB
producer
Otto Matic
solution date
2019-Jul-13 17:53:55
Additional Information
Earth MOID
= .905881 au
Jupiter MOID
= 2.4399 au
T_jup
= 3.525
[ show covariance matrix ]
[
Ephemeris
|
Orbit Diagram
|
Orbital Elements
|
Mission Design
|
Physical Parameters
|
Discovery Circumstances
|
Close-Approach Data
]
Physical Parameter Table
Parameter
Symbol
Value
Units
Sigma
Reference
Notes
absolute magnitude
H
17.6
n/a
MPO418816
357384 (2003 UP43)
Discovered 2003-Oct-17 by Spacewatch at Kitt Peak
Reference:
20130327/Numbers.arc
Last Updated:
2013-03-29
[ show close-approach data ]
Alternate Designations
2003 UP43
= 2006 KS45
[
Ephemeris
|
Orbit Diagram
|
Orbital Elements
|
Mission Design
|
Physical Parameters
|
Discovery Circumstances
|
Close-Approach Data
]
2019-Dec-15 18:55 UT
(server date/time)
Site Manager:
Ryan S. Park
Webmaster
:
Alan B. Chamberlin